Miscellaneous Local Product
Issued by NWS North Platte, NE

Home | Current Version | Previous Version | Graphics & Text | Print | Product List | Glossary On
Versions: 1 2 3 4 5 6 7 8 9 10 11 12 13 14 15 16 17 18 19 20 21 22 23 24 25 26 27 28 29 30 31 32 33 34 35 36 37 38 39 40 41 42 43 44 45 46 47 48 49 50
000
AXUS43 KLBF 260510
MISLBF


WESTERN AND NORTH CENTRAL NEBRASKA HOURLY WEATHER ROUNDUP
NATIONAL WEATHER SERVICE NORTH PLATTE NE
1100 PM CST SAT FEB 25 2017

NOTE: "FAIR" INDICATES FEW OR NO CLOUDS BELOW 12,000 FEET WITH NO
SIGNIFICANT WEATHER AND/OR OBSTRUCTIONS TO VISIBILITY.

NOTE: STATIONS NOT REPORTING VARIABLES SUCH AS SKY/WEATHER OR
PRESSURE ARE PROVIDED BY RAWS AND APRS NETWORKS AND ARE NOT UNDER
NATIONAL WEATHER SERVICE QUALITY CONTROL.

...OBSERVATIONS IN AND NEAR THE EASTERN PANHANDLE OF NEBRASKA...

CITY           SKY/WX    TMP DP  RH WIND       PRES   REMARKS
PINE RIDGE     CLEAR     16   7  67 SW9       29.75R WCI   4
CHADRON        CLEAR     13   3  64 CALM      29.77R
ALLIANCE       CLEAR      7   2  80 W8        29.76R WCI  -6
SIDNEY         CLEAR     18   7  62 W13       29.81S WCI   5
CRESCENT LAKE    N/A     16   6  64 MISG        N/A
$$

...OBSERVATIONS IN NORTHERN NEBRASKA AND FAR SOUTHERN SOUTH DAKOTA...

CITY           SKY/WX    TMP DP  RH WIND       PRES   REMARKS
WINNER         FAIR      25  17  72 S9        29.76S WCI  15
VALENTINE      CLEAR     11   6  81 SW8       29.77S WCI  -1
THEDFORD       CLEAR     17  10  71 SW3       29.80S
AINSWORTH      CLEAR     17  12  82 SW9       29.77F WCI   5
O`NEILL        PTCLDY    22  17  83 SW7       29.81R WCI  13
ORD            CLEAR     24  16  71 SW10      29.82F WCI  14
BROKEN BOW     CLEAR     22  16  78 W6        29.82F WCI  14
VALENTINE NWR    N/A     18  10  71 SW9         N/A  WCI   7
BUTTE            N/A     20  17  86 SW5         N/A  WCI  14
HALSEY           N/A     19  11  70 SW6         N/A  WCI  11
CHAMBERS         N/A     22  15  74 SW6         N/A  WCI  15
EWING            N/A     20  16  85 CALM        N/A
$$

...OBSERVATIONS IN SOUTHWEST NEBRASKA AND FAR NORTHEAST COLORADO...

CITY           SKY/WX    TMP DP  RH WIND       PRES   REMARKS
HOLYOKE        FAIR      28  21  74 SW10      29.84S WCI  19
IMPERIAL       MOCLDY    31  18  58 SW9       29.85S WCI  23
OGALLALA       CLEAR     20  15  79 W8        29.84S WCI  11
NORTH PLATTE   PTCLDY    21  14  74 CALM      29.85R
MCCOOK         CLOUDY    26  17  68 SW6       29.89S WCI  19
LEXINGTON      CLOUDY    28  20  70 W6        29.87S WCI  22
STAPLETON        N/A     23  15  73 CALM        N/A
GOTHENBURG       N/A     27  15  59 CALM        N/A
CALLAWAY         N/A     20  14  77 SW8         N/A  WCI  10
$$

...OBSERVATIONS IN CENTRAL LINCOLN COUNTY AREA...

CITY           SKY/WX    TMP DP  RH WIND       PRES   REMARKS
N.P. AIRPORT   PTCLDY    21  14  74 CALM      29.85R
N.P. DOWNTOWN    N/A     18  11  74 W3          N/A
N.P. SOUTHEAST   N/A     25  15  66 CALM        N/A
N.P. HILLCREST   N/A     24  17  73 W3          N/A
$$

...SOME OBSERVATIONS FROM AROUND THE REGION...

CITY           SKY/WX    TMP DP  RH WIND       PRES   REMARKS
LARAMIE        MOCLDY    13   1  59 W20       29.70R WCI  -5
CHEYENNE       CLEAR     16   2  54 W12       29.74S WCI   3
DENVER         CLOUDY    25   6  44 W6        29.78S WCI  18
AKRON          CLEAR     22  14  71 E3        29.82S
SCOTTSBLUFF    CLEAR     15   6  67 NW9       29.79R WCI   3
RAPID CITY     CLEAR     20  17  88 NW9       29.72S WCI   9
BISMARCK       CLOUDY    28  25  88 W12       29.67R WCI  18
PIERRE         CLOUDY    26  22  84 SW5       29.73F WCI  20
SIOUX FALLS    MOCLDY    24  19  81 SW6       29.79F WCI  17
OMAHA          CLOUDY    30  20  66 SE8       29.90F WCI  22
GRAND ISLAND   PTCLDY    26  21  81 SW7       29.88S WCI  18
KANSAS CITY    CLEAR     28  13  53 S10       30.00F WCI  19
WICHITA        CLEAR     31  18  58 SE7       29.99S WCI  24
OKLAHOMA CITY  PTCLDY    33  19  56 SE9       30.03S WCI  25
DALLAS         CLOUDY    45  24  43 SE5       30.07S
AMARILLO       CLEAR     38  21  50 S15       29.88R WCI  29
DODGE CITY     CLOUDY    36  14  40 S16       29.89R WCI  26
HAYS           PTCLDY    34  13  41 CALM      29.93R
GOODLAND       PTCLDY    20  10  65 N5        29.86R WCI  13
$$




USA.gov is the U.S. government's official web portal to all federal, state and local government web resources and services.